Regional Weather Roundup
Issued by NWS

Home | Current Version | Previous Version | Text Only | Print | Product List | Glossary On
Versions: 1 2 3 4 5 6 7 8 9 10 11 12 13 14 15 16 17 18 19 20 21 22 23 24 25 26 27 28 29 30 31 32 33 34 35 36 37 38 39 40 41 42 43 44 45 46 47 48 49 50
000
ASUS43 KTOP 061708
RWRKS

WEATHER ROUNDUP FOR KANSAS
NATIONAL WEATHER SERVICE GOODLAND KS
1200 PM CDT FRI MAY 06 2016

NOTE:  "FAIR" INDICATES FEW OR NO CLOUDS BELOW 12,000 FEET WITH NO
SIGNIFICANT WEATHER AND/OR OBSTRUCTIONS TO VISIBILITY.

KSZ001>006-013>018-027>032-041>047-061800-
NORTHWEST KANSAS

CITY           SKY/WX    TMP DP  RH WIND       PRES   REMARKS
GOODLAND       CLOUDY    72  49  44 S15       29.97F
HAYS           SUNNY     79  50  36 S26G35    30.01F
HILL CITY      MOSUNNY   77  52  41 S17G28    29.99F
RUSSELL        SUNNY     79  48  33 S23       30.01F
$$

KSZ061>065-074>080-084>089-061800-
SOUTHWEST KANSAS

CITY           SKY/WX    TMP DP  RH WIND       PRES   REMARKS
DODGE CITY     SUNNY     75  49  39 S28G35    30.04F
ELKHART          N/A     77  40  26 SW17        N/A
GARDEN CITY    SUNNY     75  44  33 S20G26    30.02S
GREAT BEND     SUNNY     79  48  34 S20G31    30.03F
LIBERAL        SUNNY     75  50  41 S16G22    30.06S
PRATT          SUNNY     74  40  28 S20       30.07S
$$

KSZ066>073-081>083-090>101-061800-
SOUTHEAST KANSAS

CITY           SKY/WX    TMP DP  RH WIND       PRES   REMARKS
CHANUTE        SUNNY     74  49  41 S9        30.12F
COFFEYVILLE    SUNNY     75  49  39 S9        30.12F
HUTCHINSON     SUNNY     80  45  28 S18       30.07F
MEDICINE LODGE   N/A     79  49  34 S14       30.06F
NEWTON         SUNNY     75  45  33 S16       30.12S
PARSONS        SUNNY     74  51  44 VRB5      30.13F
WICHITA INTL   MOSUNNY   78  49  35 S16       30.09S
WICHITA JABRA  SUNNY     77  49  37 S12       30.09S
WICHITA MCCONL SUNNY     77  49  37 S15       30.09S
WINFIELD       SUNNY     77  51  40 S10       30.37R
$$

KSZ007>012-019>026-033>040-048>060-102>105-061800-
NORTHEAST KANSAS

CITY           SKY/WX    TMP DP  RH WIND       PRES   REMARKS
CONCORDIA      SUNNY     78  48  34 S17G23    30.04S
EMPORIA        SUNNY     77  47  34 S13       30.08F
LAWRENCE       SUNNY     76  53  44 VRB7      30.08S
MANHATTAN      SUNNY     79  48  33 S13       30.06S
MARYSVILLE     SUNNY     79  46  31 SW12      30.05S
OLATHE IND     SUNNY     75  48  38 SW12      30.10F
OLATHE EXE     SUNNY     72  48  42 SW10      30.10S
SALINA         SUNNY     79  50  36 S16       30.06S
TOPEKA BILLARD SUNNY     77  49  37 SW7       30.07S
TOPEKA FORBES  SUNNY     79  51  37 SW12      30.08S
$$




USA.gov is the U.S. government's official web portal to all federal, state and local government web resources and services.